Change the Weather History Date:

Monday, August 20, 2012

  Actual Average Record
Temperature  
Mean Temperature 82 °F -  
Max Temperature 89 °F 88 °F 99 °F (2014)
Min Temperature 75 °F 73 °F 71 °F (1999)
Cooling Degree Days 17    
Growing Degree Days 32 (Base 50)    
Moisture  
Dew Point 72 °F    
Average Humidity 82    
Maximum Humidity 94    
Minimum Humidity 57    
Precipitation  
Precipitation 3.88 in - - ()
Sea Level Pressure  
Sea Level Pressure 29.95 in    
Wind  
Wind Speed 8 mph (SW)    
Max Wind Speed 28 mph    
Max Gust Speed 29 mph    
Visibility 8 miles    
Events Fog , Rain , Thunderstorm    
Averages and records for this station are not official NWS values.
T = Trace of Precipitation, MM = Missing Value Source: NWS Daily Summary

Daily Weather History Graph

Daily Weather History Graph

Search for Another Location

Airport or City:

Trip Planner

Search our weather history database for the weather conditions in past years. The results will help you decide how hot, cold, wet, or windy it might be!

Date:

Astronomy

Aug. 20, 2012 Rise Set
Actual Time 6:56 AM EDT 8:02 PM EDT
Civil Twilight 6:32 AM EDT 8:27 PM EDT
Nautical Twilight 6:02 AM EDT 8:56 PM EDT
Astronomical Twilight 5:31 AM EDT 9:27 PM EDT
Moon 9:57 AM EDT (8/20) 9:47 PM EDT (8/20)
Length of Visible Light 13h 55m
Length of Day
13h 05m
Waxing Crescent, 11% of the Moon is Illuminated
Aug 20
Waxing Crescent
Aug 24
First Quarter
Aug 31
Full
Sep 8
Last Quarter
Sep 15
New

Hourly Weather History & Observations

Time (EDT) Temp. Heat Index Dew Point Humidity Pressure Visibility Wind Dir Wind Speed Gust Speed Precip Events Conditions
12:53 AM 75.9 °F - 72.0 °F 87% 29.94 in 10.0 mi SW 6.9 mph - N/A   Mostly Cloudy
1:53 AM 77.0 °F - 72.0 °F 84% 29.93 in 10.0 mi SW 5.8 mph - N/A   Mostly Cloudy
2:53 AM 75.9 °F - 72.0 °F 87% 29.94 in 10.0 mi SW 5.8 mph - N/A   Mostly Cloudy
3:53 AM 75.9 °F - 72.0 °F 87% 29.93 in 10.0 mi SSW 5.8 mph - N/A   Mostly Cloudy
4:53 AM 75.9 °F - 72.0 °F 87% 29.94 in 9.0 mi SW 5.8 mph - N/A   Mostly Cloudy
5:53 AM 77.0 °F - 73.0 °F 88% 29.94 in 9.0 mi SW 5.8 mph - N/A   Mostly Cloudy
6:53 AM 75.9 °F - 72.0 °F 87% 29.96 in 10.0 mi WSW 5.8 mph - N/A   Mostly Cloudy
7:53 AM 75.9 °F - 73.0 °F 91% 29.96 in 9.0 mi SSW 5.8 mph - N/A   Mostly Cloudy
8:33 AM 77.0 °F - 73.4 °F 89% 29.98 in 10.0 mi South 9.2 mph - N/A   Mostly Cloudy
8:53 AM 78.1 °F - 73.0 °F 84% 29.96 in 10.0 mi South 6.9 mph - N/A   Mostly Cloudy
9:53 AM 79.0 °F - 73.0 °F 82% 29.95 in 10.0 mi SSW 4.6 mph - N/A   Mostly Cloudy
10:38 AM 82.4 °F 88.2 °F 73.4 °F 74% 29.96 in 10.0 mi WSW 3.5 mph - N/A   Mostly Cloudy
10:53 AM 82.9 °F 89.4 °F 73.9 °F 74% 29.95 in 10.0 mi Variable 4.6 mph - N/A   Mostly Cloudy
11:04 AM 84.2 °F 90.9 °F 73.4 °F 70% 29.96 in 10.0 mi Variable 3.5 mph - N/A   Mostly Cloudy
11:53 AM 84.9 °F 92.1 °F 73.9 °F 69% 29.94 in 10.0 mi Variable 6.9 mph - N/A   Mostly Cloudy
12:53 PM 84.9 °F 91.4 °F 73.0 °F 67% 29.91 in 10.0 mi East 4.6 mph - N/A   Mostly Cloudy
1:53 PM 89.1 °F 96.0 °F 72.0 °F 57% 29.89 in 10.0 mi ENE 6.9 mph - N/A   Mostly Cloudy
2:16 PM 87.8 °F 95.6 °F 73.4 °F 62% 29.90 in 10.0 mi ENE 5.8 mph - 0.00 in Rain Light Rain
2:53 PM 84.0 °F 90.2 °F 73.0 °F 69% 29.90 in 0.5 mi South 24.2 mph 28.8 mph 0.24 in Rain , Thunderstorm Light Thunderstorms and Rain
2:55 PM 80.6 °F 85.4 °F 73.4 °F 79% 29.92 in 0.2 mi SSE 27.6 mph - 0.19 in Rain , Thunderstorm Heavy Thunderstorms and Rain
3:03 PM 77.0 °F - 71.6 °F 83% 29.92 in 0.5 mi NNE 9.2 mph - 0.80 in Rain , Thunderstorm Heavy Thunderstorms and Rain
3:13 PM 77.0 °F - 73.4 °F 89% 29.94 in 0.2 mi NW 18.4 mph 25.3 mph 1.40 in Fog , Rain , Thunderstorm Heavy Thunderstorms and Rain
3:25 PM 75.2 °F - 73.4 °F 94% 29.97 in 0.2 mi West 13.8 mph 24.2 mph 2.50 in Fog , Rain , Thunderstorm Heavy Thunderstorms and Rain
3:41 PM 75.2 °F - 73.4 °F 94% 29.95 in 0.5 mi NW 17.3 mph - 3.27 in Fog , Rain , Thunderstorm Heavy Thunderstorms and Rain
3:46 PM 75.2 °F - 73.4 °F 94% 29.95 in 1.0 mi NNW 13.8 mph - 3.33 in Rain , Thunderstorm Heavy Thunderstorms and Rain
3:53 PM 75.9 °F - 73.0 °F 91% 29.94 in 1.0 mi NNW 18.4 mph - 3.45 in Rain , Thunderstorm Heavy Thunderstorms and Rain
4:10 PM 75.2 °F - 71.6 °F 89% 29.96 in 1.8 mi NW 17.3 mph - 0.05 in Rain Heavy Rain
4:39 PM 77.0 °F - 73.4 °F 89% 29.96 in 7.0 mi North 12.7 mph - 0.10 in Rain Light Rain
4:48 PM 77.0 °F - 73.4 °F 89% 29.96 in 7.0 mi NW 8.1 mph - 0.11 in Rain , Thunderstorm Thunderstorms and Rain
4:53 PM 77.0 °F - 72.0 °F 84% 29.95 in 6.0 mi NW 9.2 mph - 0.12 in Rain , Thunderstorm Thunderstorms and Rain
5:43 PM 77.0 °F - 71.6 °F 83% 29.94 in 10.0 mi NNW 9.2 mph - N/A   Mostly Cloudy
5:53 PM 77.0 °F - 71.1 °F 82% 29.94 in 10.0 mi NW 10.4 mph - N/A   Mostly Cloudy
6:53 PM 77.0 °F - 71.1 °F 82% 29.93 in 10.0 mi NNE 4.6 mph - 0.00 in Rain Light Rain
7:53 PM 78.1 °F - 71.1 °F 79% 29.96 in 10.0 mi SSE 4.6 mph - 0.00 in   Overcast
8:43 PM 78.8 °F - 71.6 °F 78% 29.97 in 10.0 mi SSE 4.6 mph - 0.00 in Rain Light Rain
8:53 PM 78.1 °F - 72.0 °F 81% 29.96 in 10.0 mi SSE 5.8 mph - 0.01 in Rain Light Rain
9:53 PM 77.0 °F - 72.0 °F 84% 29.99 in 10.0 mi South 8.1 mph - 0.00 in Rain Light Rain
10:53 PM 75.9 °F - 70.0 °F 82% 29.99 in 10.0 mi SSE 15.0 mph - 0.04 in Rain Light Rain
11:53 PM 75.0 °F - 71.1 °F 87% 29.97 in 10.0 mi SSE 15.0 mph - 0.02 in Rain Light Rain